| time (UTC) | temp F | wind direction | speed knots | gust knots | rain 1hr in | rain 24hr in | rain mn in | humidity % | barometer mb |
| 20260505080008 | 66 | 158 | 2.6 | 3.5 | 0.00 | 0.00 | 0.00 | 88 | 1012.3 |
| 20260505075504 | 66 | 150 | 2.6 | 3.5 | 0.00 | 0.00 | 0.00 | 88 | 1012.2 |
| 20260505075001 | 66 | 115 | 0.9 | 6.1 | 0.00 | 0.00 | 0.00 | 88 | 1012.1 |
| 20260505074458 | 66 | 117 | 0.0 | 6.1 | 0.00 | 0.00 | 0.00 | 88 | 1011.9 |
| 20260505073955 | 66 | 114 | 2.6 | 5.2 | 0.00 | 0.00 | 0.00 | 87 | 1012.4 |
| 20260505073453 | 66 | 117 | 0.0 | 3.5 | 0.00 | 0.00 | 0.00 | 87 | 1012.3 |
| 20260505072950 | 66 | 158 | 2.6 | 5.2 | 0.00 | 0.00 | 0.00 | 87 | 1012.2 |
| 20260505072446 | 66 | 150 | 1.7 | 5.2 | 0.00 | 0.00 | 0.00 | 87 | 1012.1 |
| 20260505071942 | 66 | 120 | 6.1 | 7.8 | 0.00 | 0.00 | 0.00 | 87 | 1012.2 |
| 20260505071438 | 67 | 121 | 1.7 | 5.2 | 0.00 | 0.00 | 0.00 | 86 | 1012.4 |
| 20260505070937 | 67 | 107 | 0.0 | 5.2 | 0.00 | 0.00 | 0.00 | 86 | 1012.4 |
| 20260505070433 | 67 | 119 | 2.6 | 3.5 | 0.00 | 0.00 | 0.00 | 86 | 1012.2 |
| 20260505065928 | 67 | 111 | 2.6 | 3.5 | 0.00 | 0.00 | 0.00 | 86 | 1012.6 |
| 20260505065425 | 67 | 111 | 0.0 | 1.7 | 0.00 | 0.00 | 0.00 | 85 | 1012.8 |
| 20260505064922 | 67 | 112 | 1.7 | 5.2 | 0.00 | 0.00 | 0.00 | 85 | 1012.9 |
| 20260505064419 | 67 | 113 | 0.9 | 13.0 | 0.00 | 0.00 | 0.00 | 85 | 1013.0 |
| 20260505063918 | 67 | 119 | 3.5 | 6.1 | 0.00 | 0.00 | 0.00 | 85 | 1012.9 |
| 20260505063413 | 67 | 108 | 0.0 | 6.1 | 0.00 | 0.00 | 0.00 | 85 | 1013.1 |
| 20260505062910 | 67 | 109 | 1.7 | 5.2 | 0.00 | 0.00 | 0.00 | 84 | 1013.0 |
| 20260505062407 | 67 | 97 | 0.0 | 3.5 | 0.00 | 0.00 | 0.00 | 84 | 1013.0 |
| 20260505061904 | 67 | 107 | 0.0 | 1.7 | 0.00 | 0.00 | 0.00 | 84 | 1013.1 |
| 20260505061403 | 68 | 115 | 4.3 | 7.8 | 0.00 | 0.00 | 0.00 | 83 | 1013.1 |
| 20260505060859 | 68 | 116 | 2.6 | 3.5 | 0.00 | 0.00 | 0.00 | 83 | 1013.4 |
| 20260505060356 | 68 | 110 | 0.9 | 5.2 | 0.00 | 0.00 | 0.00 | 83 | 1012.9 |
| 20260505055852 | 68 | 118 | 3.5 | 5.2 | 0.00 | 0.00 | 0.00 | 83 | 1013.0 |
| 20260505055348 | 68 | 109 | 0.9 | 6.1 | 0.00 | 0.00 | 0.00 | 82 | 1013.1 |
| 20260505054845 | 68 | 115 | 1.7 | 7.8 | 0.00 | 0.00 | 0.00 | 82 | 1013.2 |
| 20260505054343 | 68 | 121 | 0.9 | 6.1 | 0.00 | 0.00 | 0.00 | 82 | 1013.2 |
| 20260505053841 | 68 | 101 | 3.5 | 6.1 | 0.00 | 0.00 | 0.00 | 81 | 1013.1 |
| 20260505053338 | 68 | 211 | 4.3 | 6.1 | 0.00 | 0.00 | 0.00 | 81 | 1013.1 |
| 20260505052834 | 68 | 110 | 4.3 | 7.8 | 0.00 | 0.00 | 0.00 | 81 | 1013.2 |
| 20260505052331 | 68 | 212 | 6.1 | 7.8 | 0.00 | 0.00 | 0.00 | 81 | 1013.2 |
| 20260505051828 | 68 | 121 | 1.7 | 7.8 | 0.00 | 0.00 | 0.00 | 80 | 1013.2 |
| 20260505051326 | 68 | 98 | 1.7 | 3.5 | 0.00 | 0.00 | 0.00 | 80 | 1012.9 |
| 20260505050824 | 68 | 119 | 1.7 | 3.5 | 0.00 | 0.00 | 0.00 | 80 | 1013.0 |
| 20260505050323 | 68 | 113 | 0.9 | 5.2 | 0.00 | 0.00 | 0.00 | 80 | 1013.3 |
| 20260505041752 | 69 | 121 | 0.9 | 1.7 | 0.00 | 0.00 | 0.00 | 76 | 1013.2 |
| 20260505041249 | 68 | 128 | 4.3 | 7.8 | 0.00 | 0.00 | 0.00 | 75 | 1013.0 |
| 20260505040746 | 69 | 106 | 0.0 | 3.5 | 0.00 | 0.00 | 0.00 | 75 | 1013.1 |
| 20260505040244 | 69 | 101 | 0.9 | 3.5 | 0.00 | 0.00 | 0.00 | 75 | 1013.2 |
| 20260505035741 | 69 | 116 | 1.7 | 1.7 | 0.00 | 0.00 | 0.00 | 75 | 1013.3 |
| 20260505035236 | 69 | 124 | 2.6 | 6.1 | 0.00 | 0.00 | 0.00 | 74 | 1013.4 |
| 20260505034733 | 69 | 108 | 0.0 | 1.7 | 0.00 | 0.00 | 0.00 | 74 | 1013.3 |
| 20260505034230 | 69 | 125 | 1.7 | 3.5 | 0.00 | 0.00 | 0.00 | 73 | 1013.2 |
| 20260505033727 | 69 | 103 | 0.9 | 5.2 | 0.00 | 0.00 | 0.00 | 73 | 1013.3 |
| 20260505033225 | 69 | 183 | 3.5 | 5.2 | 0.00 | 0.00 | 0.00 | 73 | 1013.3 |
| 20260505032722 | 70 | 106 | 0.0 | 3.5 | 0.00 | 0.00 | 0.00 | 72 | 1013.4 |
| 20260505032218 | 70 | 119 | 1.7 | 7.8 | 0.00 | 0.00 | 0.00 | 72 | 1013.2 |
| 20260505031716 | 70 | 110 | 1.7 | 3.5 | 0.00 | 0.00 | 0.00 | 72 | 1013.1 |
| 20260505031212 | 70 | 115 | 0.9 | 5.2 | 0.00 | 0.00 | 0.00 | 71 | 1013.1 |
| 20260505030709 | 70 | 126 | 1.7 | 6.1 | 0.00 | 0.00 | 0.00 | 71 | 1013.2 |
| 20260505030205 | 70 | 128 | 0.0 | 3.5 | 0.00 | 0.00 | 0.00 | 71 | 1013.0 |
| 20260505025701 | 70 | 105 | 0.0 | 1.7 | 0.00 | 0.00 | 0.00 | 71 | 1013.1 |
| 20260505025159 | 70 | 94 | 0.0 | 3.5 | 0.00 | 0.00 | 0.00 | 70 | 1013.1 |
| 20260505024657 | 70 | 106 | 0.9 | 3.5 | 0.00 | 0.00 | 0.00 | 70 | 1012.9 |
| 20260505024154 | 71 | 113 | 0.0 | 3.5 | 0.00 | 0.00 | 0.00 | 69 | 1013.0 |
| 20260505023652 | 70 | 108 | 0.0 | 1.7 | 0.00 | 0.00 | 0.00 | 69 | 1012.8 |
| 20260505023149 | 70 | 132 | 0.9 | 5.2 | 0.00 | 0.00 | 0.00 | 69 | 1012.6 |
| 20260505022646 | 70 | 107 | 0.9 | 3.5 | 0.00 | 0.00 | 0.00 | 69 | 1013.0 |
| 20260505022143 | 70 | 103 | 0.0 | 1.7 | 0.00 | 0.00 | 0.00 | 69 | 1012.6 |
| 20260505021639 | 71 | 101 | 0.0 | 1.7 | 0.00 | 0.00 | 0.00 | 68 | 1012.9 |
| 20260505021136 | 71 | 115 | 0.9 | 3.5 | 0.00 | 0.00 | 0.00 | 68 | 1012.6 |
| 20260505020632 | 71 | 149 | 2.6 | 3.5 | 0.00 | 0.00 | 0.00 | 69 | 1012.5 |
| 20260505020128 | 71 | 109 | 0.9 | 3.5 | 0.00 | 0.00 | 0.00 | 68 | 1012.4 |
| 20260505015625 | 71 | 111 | 0.9 | 3.5 | 0.00 | 0.00 | 0.00 | 67 | 1012.7 |
| 20260505015121 | 71 | 158 | 1.7 | 3.5 | 0.00 | 0.00 | 0.00 | 67 | 1012.5 |
| 20260505014619 | 71 | 110 | 0.0 | 3.5 | 0.00 | 0.00 | 0.00 | 67 | 1012.4 |
| 20260505014116 | 71 | 103 | 0.0 | 1.7 | 0.00 | 0.00 | 0.00 | 66 | 1012.6 |
| 20260505013613 | 71 | 106 | 0.0 | 5.2 | 0.00 | 0.00 | 0.00 | 65 | 1012.3 |
| 20260505013110 | 72 | 103 | 0.0 | 0.0 | 0.00 | 0.00 | 0.00 | 66 | 1012.5 |
| 20260505012609 | 72 | 112 | 1.7 | 5.2 | 0.00 | 0.00 | 0.00 | 65 | 1012.2 |
| 20260505012105 | 72 | 103 | 0.0 | 1.7 | 0.00 | 0.00 | 0.00 | 65 | 1012.0 |
| 20260505011601 | 72 | 106 | 0.9 | 1.7 | 0.00 | 0.00 | 0.00 | 64 | 1012.2 |
| 20260505011058 | 73 | 107 | 0.0 | 1.7 | 0.00 | 0.00 | 0.00 | 64 | 1012.3 |
| 20260505010553 | 73 | 137 | 2.6 | 3.5 | 0.00 | 0.00 | 0.00 | 63 | 1012.2 |
| 20260505010050 | 73 | 116 | 0.9 | 1.7 | 0.00 | 0.00 | 0.00 | 63 | 1012.2 |
| 20260505005546 | 73 | 106 | 0.0 | 1.7 | 0.00 | 0.00 | 0.00 | 62 | 1012.3 |
| 20260505005044 | 74 | 109 | 0.0 | 3.5 | 0.00 | 0.00 | 0.00 | 61 | 1012.5 |
| 20260505004541 | 74 | 92 | 0.9 | 5.2 | 0.00 | 0.00 | 0.00 | 60 | 1012.4 |
| 20260505004037 | 74 | 112 | 2.6 | 5.2 | 0.00 | 0.00 | 0.00 | 59 | 1012.5 |
| 20260505003535 | 74 | 120 | 1.7 | 3.5 | 0.00 | 0.00 | 0.00 | 60 | 1012.5 |
| 20260505003032 | 75 | 132 | 4.3 | 6.1 | 0.00 | 0.00 | 0.00 | 59 | 1012.4 |
| 20260505002532 | 75 | 165 | 1.7 | 3.5 | 0.00 | 0.00 | 0.00 | 59 | 1012.8 |
| 20260505002032 | 75 | 115 | 5.2 | 6.1 | 0.00 | 0.00 | 0.00 | 57 | 1012.6 |
| 20260505001528 | 76 | 111 | 0.9 | 5.2 | 0.00 | 0.00 | 0.00 | 57 | 1012.6 |
| 20260505001025 | 76 | 113 | 1.7 | 3.5 | 0.00 | 0.00 | 0.00 | 56 | 1012.8 |
| 20260505000523 | 77 | 220 | 4.3 | 7.8 | 0.00 | 0.00 | 0.00 | 55 | 1012.7 |
| 20260505000020 | 77 | 95 | 2.6 | 7.8 | 0.00 | 0.00 | 0.00 | 55 | 1012.8 |
| 20260504235517 | 77 | 99 | 0.0 | 5.2 | 0.00 | 0.00 | 0.00 | 54 | 1012.9 |
| 20260504235013 | 77 | 228 | 5.2 | 6.1 | 0.00 | 0.00 | 0.00 | 53 | 1012.8 |
| 20260504234511 | 78 | 134 | 1.7 | 5.2 | 0.00 | 0.00 | 0.00 | 52 | 1012.9 |
| 20260504234008 | 78 | 31 | 2.6 | 6.1 | 0.00 | 0.00 | 0.00 | 52 | 1012.6 |
| 20260504233502 | 78 | 134 | 3.5 | 6.1 | 0.00 | 0.00 | 0.00 | 51 | 1012.5 |
| 20260504233000 | 79 | 132 | 2.6 | 5.2 | 0.00 | 0.00 | 0.00 | 50 | 1012.7 |
| 20260504232457 | 79 | 138 | 1.7 | 6.1 | 0.00 | 0.00 | 0.00 | 50 | 1013.0 |
| 20260504231955 | 78 | 152 | 4.3 | 9.6 | 0.00 | 0.00 | 0.00 | 50 | 1013.1 |
| 20260504231451 | 79 | 122 | 3.5 | 6.1 | 0.00 | 0.00 | 0.00 | 49 | 1013.1 |
| 20260504230947 | 79 | 115 | 4.3 | 16.5 | 0.00 | 0.00 | 0.00 | 49 | 1013.0 |
| 20260504230444 | 78 | 134 | 2.6 | 9.6 | 0.00 | 0.00 | 0.00 | 49 | 1013.4 |
| 20260504225943 | 78 | 208 | 6.1 | 7.8 | 0.00 | 0.00 | 0.00 | 49 | 1013.4 |
| 20260504225439 | 79 | 143 | 1.7 | 9.6 | 0.00 | 0.00 | 0.00 | 47 | 1013.7 |
| 20260504224936 | 79 | 217 | 3.5 | 6.1 | 0.00 | 0.00 | 0.00 | 47 | 1013.6 |
| 20260504224433 | 79 | 74 | 1.7 | 7.8 | 0.00 | 0.00 | 0.00 | 46 | 1013.4 |
| 20260504223930 | 79 | 164 | 0.9 | 7.8 | 0.00 | 0.00 | 0.00 | 46 | 1013.8 |
| 20260504223425 | 80 | 141 | 5.2 | 9.6 | 0.00 | 0.00 | 0.00 | 46 | 1014.0 |
| 20260504222921 | 80 | 120 | 2.6 | 5.2 | 0.00 | 0.00 | 0.00 | 46 | 1013.8 |
| 20260504222419 | 80 | 202 | 7.8 | 11.3 | 0.00 | 0.00 | 0.00 | 45 | 1013.9 |
| 20260504221917 | 79 | 119 | 1.7 | 11.3 | 0.00 | 0.00 | 0.00 | 48 | 1013.9 |
| 20260504221414 | 80 | 142 | 2.6 | 5.2 | 0.00 | 0.00 | 0.00 | 46 | 1013.9 |
| 20260504220911 | 79 | 115 | 2.6 | 3.5 | 0.00 | 0.00 | 0.00 | 46 | 1013.9 |
| 20260504220407 | 80 | 112 | 8.7 | 11.3 | 0.00 | 0.00 | 0.00 | 46 | 1014.0 |
| 20260504215905 | 80 | 187 | 6.1 | 6.1 | 0.00 | 0.00 | 0.00 | 46 | 1014.1 |
| 20260504215401 | 80 | 91 | 0.9 | 5.2 | 0.00 | 0.00 | 0.00 | 47 | 1014.2 |
| 20260504214857 | 80 | 99 | 0.9 | 5.2 | 0.00 | 0.00 | 0.00 | 46 | 1014.1 |
| 20260504214354 | 80 | 109 | 3.5 | 11.3 | 0.00 | 0.00 | 0.00 | 45 | 1014.3 |
| 20260504213851 | 80 | 125 | 0.0 | 3.5 | 0.00 | 0.00 | 0.00 | 47 | 1014.1 |
| 20260504213347 | 79 | 140 | 2.6 | 6.1 | 0.00 | 0.00 | 0.00 | 46 | 1014.5 |
| 20260504212844 | 80 | 135 | 3.5 | 5.2 | 0.00 | 0.00 | 0.00 | 44 | 1014.7 |
| 20260504212340 | 80 | 143 | 3.5 | 7.8 | 0.00 | 0.00 | 0.00 | 46 | 1014.6 |
| 20260504211838 | 80 | 177 | 6.1 | 9.6 | 0.00 | 0.00 | 0.00 | 44 | 1014.4 |
| 20260504211334 | 80 | 127 | 3.5 | 6.1 | 0.00 | 0.00 | 0.00 | 45 | 1014.7 |
| 20260504210832 | 79 | 239 | 6.1 | 11.3 | 0.00 | 0.00 | 0.00 | 44 | 1014.6 |
| 20260504210328 | 80 | 190 | 3.5 | 6.1 | 0.00 | 0.00 | 0.00 | 45 | 1015.1 |
| 20260504205826 | 79 | 145 | 6.1 | 13.0 | 0.00 | 0.00 | 0.00 | 45 | 1015.1 |
| 20260504205323 | 80 | 201 | 6.1 | 7.8 | 0.00 | 0.00 | 0.00 | 44 | 1014.9 |
| 20260504204821 | 79 | 110 | 1.7 | 3.5 | 0.00 | 0.00 | 0.00 | 47 | 1015.1 |
| 20260504204320 | 79 | 113 | 3.5 | 7.8 | 0.00 | 0.00 | 0.00 | 46 | 1015.1 |
| 20260504203819 | 79 | 246 | 11.3 | 14.8 | 0.00 | 0.00 | 0.00 | 44 | 1015.4 |
| 20260504203315 | 79 | 245 | 7.8 | 11.3 | 0.00 | 0.00 | 0.00 | 45 | 1015.4 |
| 20260504202810 | 79 | 173 | 7.8 | 16.5 | 0.00 | 0.00 | 0.00 | 44 | 1015.5 |
| 20260504202308 | 80 | 125 | 19.1 | 26.1 | 0.00 | 0.00 | 0.00 | 43 | 1015.5 |
| 20260504201805 | 79 | 161 | 4.3 | 6.1 | 0.00 | 0.00 | 0.00 | 46 | 1015.8 |
| 20260504201302 | 79 | 155 | 6.1 | 7.8 | 0.00 | 0.00 | 0.00 | 48 | 1015.8 |
| 20260504200800 | 79 | 244 | 4.3 | 9.6 | 0.00 | 0.00 | 0.00 | 47 | 1015.9 |
| 20260504200255 | 79 | 138 | 1.7 | 5.2 | 0.00 | 0.00 | 0.00 | 48 | 1016.1 |
| 20260504195752 | 79 | 100 | 0.9 | 7.8 | 0.00 | 0.00 | 0.00 | 47 | 1016.0 |
| 20260504195248 | 79 | 119 | 0.9 | 7.8 | 0.00 | 0.00 | 0.00 | 48 | 1016.1 |
| 20260504194745 | 79 | 98 | 2.6 | 14.8 | 0.00 | 0.00 | 0.00 | 47 | 1016.2 |
| 20260504194241 | 78 | 157 | 6.1 | 7.8 | 0.00 | 0.00 | 0.00 | 45 | 1016.3 |
| 20260504193737 | 78 | 73 | 2.6 | 9.6 | 0.00 | 0.00 | 0.00 | 46 | 1016.8 |
| 20260504193235 | 78 | 152 | 0.9 | 5.2 | 0.00 | 0.00 | 0.00 | 49 | 1016.6 |
| 20260504192733 | 78 | 71 | 4.3 | 14.8 | 0.00 | 0.00 | 0.00 | 49 | 1016.6 |
| 20260504192231 | 78 | 274 | 5.2 | 6.1 | 0.00 | 0.00 | 0.00 | 48 | 1016.6 |
| 20260504191730 | 78 | 211 | 5.2 | 7.8 | 0.00 | 0.00 | 0.00 | 48 | 1016.8 |
| 20260504191226 | 77 | 150 | 1.7 | 6.1 | 0.00 | 0.00 | 0.00 | 48 | 1016.8 |
| 20260504190721 | 78 | 130 | 1.7 | 6.1 | 0.00 | 0.00 | 0.00 | 50 | 1017.4 |
| 20260504190218 | 77 | 137 | 2.6 | 13.0 | 0.00 | 0.00 | 0.00 | 47 | 1017.3 |
| 20260504185715 | 77 | 210 | 4.3 | 18.2 | 0.00 | 0.00 | 0.00 | 49 | 1017.0 |
| 20260504185212 | 78 | 212 | 1.7 | 9.6 | 0.00 | 0.00 | 0.00 | 48 | 1016.9 |
| 20260504184708 | 78 | 134 | 2.6 | 9.6 | 0.00 | 0.00 | 0.00 | 48 | 1017.1 |
| 20260504184203 | 77 | 195 | 7.0 | 13.0 | 0.00 | 0.00 | 0.00 | 48 | 1017.2 |
| 20260504183659 | 77 | 109 | 0.9 | 11.3 | 0.00 | 0.00 | 0.00 | 48 | 1017.4 |
| 20260504183157 | 77 | 111 | 1.7 | 7.8 | 0.00 | 0.00 | 0.00 | 49 | 1017.5 |
| 20260504182654 | 77 | 239 | 7.8 | 9.6 | 0.00 | 0.00 | 0.00 | 48 | 1017.6 |
| 20260504182152 | 77 | 97 | 6.1 | 7.8 | 0.00 | 0.00 | 0.00 | 48 | 1017.5 |
| 20260504181649 | 76 | 136 | 4.3 | 13.0 | 0.00 | 0.00 | 0.00 | 48 | 1017.8 |
| 20260504181147 | 75 | 128 | 2.6 | 7.8 | 0.00 | 0.00 | 0.00 | 49 | 1017.6 |
| 20260504180646 | 76 | 159 | 6.1 | 14.8 | 0.00 | 0.00 | 0.00 | 49 | 1017.6 |
| 20260504180144 | 76 | 116 | 2.6 | 11.3 | 0.00 | 0.00 | 0.00 | 50 | 1017.8 |
| 20260504175641 | 76 | 96 | 1.7 | 11.3 | 0.00 | 0.00 | 0.00 | 52 | 1017.6 |
| 20260504175137 | 75 | 153 | 3.5 | 18.2 | 0.00 | 0.00 | 0.00 | 50 | 1017.9 |
| 20260504174636 | 76 | 106 | 0.0 | 5.2 | 0.00 | 0.00 | 0.00 | 50 | 1017.8 |
| 20260504174132 | 77 | 134 | 5.2 | 14.8 | 0.00 | 0.00 | 0.00 | 50 | 1018.1 |
| 20260504173629 | 76 | 150 | 3.5 | 5.2 | 0.00 | 0.00 | 0.00 | 51 | 1018.1 |
| 20260504173127 | 76 | 154 | 2.6 | 14.8 | 0.00 | 0.00 | 0.00 | 53 | 1018.1 |
| 20260504172623 | 76 | 41 | 4.3 | 13.0 | 0.00 | 0.00 | 0.00 | 51 | 1018.2 |
| 20260504172120 | 76 | 149 | 4.3 | 7.8 | 0.00 | 0.00 | 0.00 | 50 | 1018.2 |
| 20260504171616 | 76 | 187 | 3.5 | 11.3 | 0.00 | 0.00 | 0.00 | 50 | 1018.1 |
| 20260504171113 | 76 | 242 | 3.5 | 6.1 | 0.00 | 0.00 | 0.00 | 51 | 1018.1 |
| 20260504170609 | 75 | 236 | 4.3 | 7.8 | 0.00 | 0.00 | 0.00 | 52 | 1018.2 |
| 20260504170107 | 76 | 152 | 2.6 | 7.8 | 0.00 | 0.00 | 0.00 | 51 | 1018.2 |
| 20260504150952 | 71 | 138 | 3.5 | 14.8 | 0.00 | 0.00 | 0.00 | 61 | 1019.1 |
| 20260504150449 | 71 | 108 | 2.6 | 5.2 | 0.00 | 0.00 | 0.00 | 61 | 1019.2 |
| 20260504140916 | 67 | 157 | 1.7 | 3.5 | 0.00 | 0.00 | 0.00 | 72 | 1019.2 |
| 20260504140411 | 66 | 117 | 1.7 | 6.1 | 0.00 | 0.00 | 0.00 | 73 | 1019.2 |
| 20260504130337 | 60 | 136 | 1.7 | 3.5 | 0.00 | 0.00 | 0.00 | 84 | 1019.3 |
| 20260504120300 | 53 | 98 | 0.0 | 0.0 | 0.00 | 0.00 | 0.00 | 96 | 1019.2 |
| 20260504110224 | 53 | 105 | 0.0 | 0.0 | 0.00 | 0.00 | 0.00 | 96 | 1018.8 |
| 20260504100148 | 53 | 105 | 0.0 | 0.0 | 0.00 | 0.00 | 0.00 | 96 | 1019.1 |
| 20260504090110 | 54 | 105 | 0.0 | 0.0 | 0.00 | 0.00 | 0.00 | 94 | 1018.8 |
| 20260504081541 | 55 | 103 | 0.0 | 0.0 | 0.00 | 0.00 | 0.00 | 92 | 1018.8 |
| 20260504081036 | 55 | 105 | 0.0 | 0.0 | 0.00 | 0.00 | 0.00 | 92 | 1018.8 |
| 20260504080533 | 55 | 102 | 0.0 | 0.0 | 0.00 | 0.00 | 0.00 | 92 | 1018.9 |